Eurus Lima — A8MH9 — position and weather

sailwx.info

Track history (hours):
 
Tides and Currents Weather Stations Pressure Air Temp Water Temp Dewpoint Dewpoint Depression Visibility Wind Speed Wind Dir Waves Ship Positions

Eurus Lima (Liberia)

Last reported at 2014-Nov-06 16:27 UTC. Time now 2014-Dec-22 19:29 UTC.
Position N 34°03' E 022°15'.
Warning: this ship's position is 46 days out of date.

Type: Ship. MMSI: 636013342.

Date/timePositionNaut miles runAvg speedWind from/ knotsBaromVisibWave heightAir tempDewpointWater temp
2014-Nov-06 16:27N 34°03' E 022°15'44312.0
2014-Nov-05 03:33N 36°31' E 013°43'11712.4
2014-Nov-04 18:05N 37°15' E 011°26'42814.0
2014-Nov-03 11:26N 36°53' E 002°30'10815.1
2014-Nov-03 04:18N 36°38' E 000°17'26214.6
2014-Nov-02 10:17N 36°03' W 005°06'1014.2
2014-Nov-02 09:33N 36°05' W 005°19'4 3.5
2014-Nov-02 08:32N 36°07' W 005°22'0 0.0
2014-Nov-02 07:32N 36°07' W 005°22'0 0.0
2014-Nov-02 06:31N 36°07' W 005°22'0 0.0
2014-Nov-02 05:28N 36°07' W 005°22'0 0.0
2014-Nov-02 04:33N 36°07' W 005°22'0 0.0
2014-Nov-02 03:33N 36°07' W 005°22'0 0.0
2014-Nov-02 02:33N 36°07' W 005°22'0 0.0
2014-Nov-02 01:32N 36°07' W 005°22'0 0.0
2014-Nov-02 00:32N 36°07' W 005°22'0 0.2
2014-Nov-01 23:31N 36°07' W 005°22'0 0.0
2014-Nov-01 22:31N 36°07' W 005°22'0 0.0
2014-Nov-01 21:34N 36°07' W 005°22'0 0.0
2014-Nov-01 20:27N 36°07' W 005°22'0 0.0
2014-Nov-01 19:33N 36°07' W 005°22'0 0.1
2014-Nov-01 18:18N 36°07' W 005°22'0 0.0
2014-Nov-01 17:32N 36°07' W 005°22'0 0.0
2014-Nov-01 16:32N 36°07' W 005°22'0 0.0
2014-Nov-01 15:33N 36°07' W 005°22'0 0.0
2014-Nov-01 14:33N 36°07' W 005°22'0 0.0
2014-Nov-01 13:33N 36°07' W 005°22'0 0.0
2014-Nov-01 12:33N 36°07' W 005°22'0 0.0
2014-Nov-01 11:27N 36°07' W 005°22'0 0.2
2014-Nov-01 10:33N 36°07' W 005°22'3 2.5
2014-Nov-01 09:32N 36°05' W 005°20'3 3.4
2014-Nov-01 08:33N 36°05' W 005°16'2 2.0
2014-Nov-01 07:33N 36°04' W 005°18'1212.3
2014-Nov-01 06:34N 35°57' W 005°30'8713.6
2014-Nov-01 00:11N 35°57' W 007°18'913.3
2014-Oct-31 23:32N 35°56' W 007°28'7116.7
2014-Oct-31 19:19N 36°00' W 008°55'2 2.0
2014-Oct-31 18:33N 36°00' W 008°57'2015.0
2014-Oct-31 17:13N 36°01' W 009°22'1015.4
2014-Oct-31 16:34N 36°02' W 009°34'3415.6
2014-Oct-31 14:21N 36°03' W 010°17'4815.8
2014-Oct-31 11:17N 36°03' W 011°17'1815.6
2014-Oct-31 10:08N 36°03' W 011°39'51115.5
2014-Oct-30 01:11N 35°43' W 022°10'6215.0
2014-Oct-29 21:04N 35°37' W 023°25'915.2
2014-Oct-29 20:27N 35°36' W 023°36'1915.3
2014-Oct-29 19:12N 35°34' W 024°00'1015.3
2014-Oct-29 18:33N 35°33' W 024°12'1915.2
2014-Oct-29 17:17N 35°31' W 024°36'2615.1
2014-Oct-29 15:33N 35°28' W 025°07'1515.1
2014-Oct-29 14:33N 35°26' W 025°26'2215.6
2014-Oct-29 13:09N 35°23' W 025°52'2515.7
2014-Oct-29 11:33N 35°19' W 026°23'11115.6
2014-Oct-29 04:26N 35°03' W 028°38'  
Track history (hours):
 
Tides and Currents Weather Stations Pressure Air Temp Water Temp Dewpoint Dewpoint Depression Visibility Wind Speed Wind Dir Waves Ship Positions

Eurus Lima (Liberia)

Last reported at 2014-Nov-06 16:27 UTC. Time now 2014-Dec-22 19:29 UTC.
Position N 34°03' E 022°15'.
Warning: this ship's position is 46 days out of date.

Type: Ship. MMSI: 636013342.

Date/timePositionNaut miles runAvg speedWind from/ knotsBaromVisibWave heightAir tempDewpointWater temp
2014-Nov-06 16:27N 34°03' E 022°15'44312.0
2014-Nov-05 03:33N 36°31' E 013°43'11712.4
2014-Nov-04 18:05N 37°15' E 011°26'42814.0
2014-Nov-03 11:26N 36°53' E 002°30'10815.1
2014-Nov-03 04:18N 36°38' E 000°17'26214.6
2014-Nov-02 10:17N 36°03' W 005°06'1014.2
2014-Nov-02 09:33N 36°05' W 005°19'4 3.5
2014-Nov-02 08:32N 36°07' W 005°22'0 0.0
2014-Nov-02 07:32N 36°07' W 005°22'0 0.0
2014-Nov-02 06:31N 36°07' W 005°22'0 0.0
2014-Nov-02 05:28N 36°07' W 005°22'0 0.0
2014-Nov-02 04:33N 36°07' W 005°22'0 0.0
2014-Nov-02 03:33N 36°07' W 005°22'0 0.0
2014-Nov-02 02:33N 36°07' W 005°22'0 0.0
2014-Nov-02 01:32N 36°07' W 005°22'0 0.0
2014-Nov-02 00:32N 36°07' W 005°22'0 0.2
2014-Nov-01 23:31N 36°07' W 005°22'0 0.0
2014-Nov-01 22:31N 36°07' W 005°22'0 0.0
2014-Nov-01 21:34N 36°07' W 005°22'0 0.0
2014-Nov-01 20:27N 36°07' W 005°22'0 0.0
2014-Nov-01 19:33N 36°07' W 005°22'0 0.1
2014-Nov-01 18:18N 36°07' W 005°22'0 0.0
2014-Nov-01 17:32N 36°07' W 005°22'0 0.0
2014-Nov-01 16:32N 36°07' W 005°22'0 0.0
2014-Nov-01 15:33N 36°07' W 005°22'0 0.0
2014-Nov-01 14:33N 36°07' W 005°22'0 0.0
2014-Nov-01 13:33N 36°07' W 005°22'0 0.0
2014-Nov-01 12:33N 36°07' W 005°22'0 0.0
2014-Nov-01 11:27N 36°07' W 005°22'0 0.2
2014-Nov-01 10:33N 36°07' W 005°22'3 2.5
2014-Nov-01 09:32N 36°05' W 005°20'3 3.4
2014-Nov-01 08:33N 36°05' W 005°16'2 2.0
2014-Nov-01 07:33N 36°04' W 005°18'1212.3
2014-Nov-01 06:34N 35°57' W 005°30'8713.6
2014-Nov-01 00:11N 35°57' W 007°18'913.3
2014-Oct-31 23:32N 35°56' W 007°28'7116.7
2014-Oct-31 19:19N 36°00' W 008°55'2 2.0
2014-Oct-31 18:33N 36°00' W 008°57'2015.0
2014-Oct-31 17:13N 36°01' W 009°22'1015.4
2014-Oct-31 16:34N 36°02' W 009°34'3415.6
2014-Oct-31 14:21N 36°03' W 010°17'4815.8
2014-Oct-31 11:17N 36°03' W 011°17'1815.6
2014-Oct-31 10:08N 36°03' W 011°39'51115.5
2014-Oct-30 01:11N 35°43' W 022°10'6215.0
2014-Oct-29 21:04N 35°37' W 023°25'915.2
2014-Oct-29 20:27N 35°36' W 023°36'1915.3
2014-Oct-29 19:12N 35°34' W 024°00'1015.3
2014-Oct-29 18:33N 35°33' W 024°12'1915.2
2014-Oct-29 17:17N 35°31' W 024°36'2615.1
2014-Oct-29 15:33N 35°28' W 025°07'1515.1
2014-Oct-29 14:33N 35°26' W 025°26'2215.6
2014-Oct-29 13:09N 35°23' W 025°52'2515.7
2014-Oct-29 11:33N 35°19' W 026°23'11115.6
2014-Oct-29 04:26N 35°03' W 028°38'  

Dump ship's entire track history